TimeEDT,TemperatureF,Dew PointF,Humidity,Sea Level PressureIn,VisibilityMPH,Wind Direction,Wind SpeedMPH,Gust SpeedMPH,PrecipitationIn,Events,Conditions,WindDirDegrees,DateUTC
12:53 AM,62.1,48.0,60,30.19,10.0,SW,3.5,-,N/A,,Clear,230,2012-03-15 04:53:00
1:53 AM,61.0,48.0,62,30.19,10.0,Calm,Calm,-,N/A,,Clear,0,2012-03-15 05:53:00
2:53 AM,61.0,48.0,62,30.19,10.0,Calm,Calm,-,N/A,,Clear,0,2012-03-15 06:53:00
3:53 AM,59.0,48.9,69,30.19,10.0,Calm,Calm,-,N/A,,Clear,0,2012-03-15 07:53:00
4:53 AM,57.9,48.0,70,30.19,10.0,Calm,Calm,-,N/A,,Clear,0,2012-03-15 08:53:00
5:53 AM,54.0,48.0,80,30.19,10.0,Calm,Calm,-,N/A,,Clear,0,2012-03-15 09:53:00
6:53 AM,54.0,46.9,77,30.21,10.0,SSE,3.5,-,N/A,,Clear,150,2012-03-15 10:53:00
7:53 AM,53.1,46.9,80,30.24,10.0,Calm,Calm,-,N/A,,Clear,0,2012-03-15 11:53:00
8:53 AM,59.0,51.1,75,30.25,10.0,Calm,Calm,-,N/A,,Clear,0,2012-03-15 12:53:00
9:53 AM,66.9,52.0,59,30.25,10.0,Calm,Calm,-,N/A,,Clear,0,2012-03-15 13:53:00
10:53 AM,71.1,52.0,51,30.24,10.0,Calm,Calm,-,N/A,,Clear,0,2012-03-15 14:53:00
11:53 AM,78.1,50.0,37,30.25,10.0,Calm,Calm,-,N/A,,Clear,0,2012-03-15 15:53:00
12:53 PM,80.1,45.0,29,30.23,10.0,South,3.5,-,N/A,,Clear,170,2012-03-15 16:53:00
1:53 PM,81.0,46.0,29,30.19,10.0,Variable,5.8,-,N/A,,Clear,0,2012-03-15 17:53:00
2:53 PM,82.9,46.0,27,30.17,10.0,Calm,Calm,-,N/A,,Clear,0,2012-03-15 18:53:00
3:53 PM,84.9,44.1,24,30.15,10.0,SW,10.4,17.3,N/A,,Scattered Clouds,220,2012-03-15 19:53:00
4:53 PM,80.1,48.9,34,30.15,10.0,WNW,5.8,-,N/A,,Scattered Clouds,290,2012-03-15 20:53:00
5:07 PM,82.4,46.4,28,30.17,10.0,WSW,6.9,-,N/A,,Partly Cloudy,240,2012-03-15 21:07:00
5:53 PM,82.0,46.0,28,30.14,10.0,SW,5.8,-,N/A,,Partly Cloudy,230,2012-03-15 21:53:00
6:53 PM,77.0,46.9,34,30.16,10.0,WNW,5.8,-,N/A,,Clear,290,2012-03-15 22:53:00
7:53 PM,73.9,48.9,41,30.17,10.0,NE,5.8,-,N/A,,Clear,50,2012-03-15 23:53:00
8:53 PM,70.0,52.0,53,30.19,10.0,North,5.8,-,0.00,,Mostly Cloudy,10,2012-03-16 00:53:00
9:53 PM,68.0,54.0,61,30.21,10.0,NE,13.8,-,N/A,,Overcast,40,2012-03-16 01:53:00
10:53 PM,64.0,55.0,73,30.22,10.0,NE,5.8,-,N/A,,Clear,50,2012-03-16 02:53:00
11:53 PM,63.0,54.0,72,30.22,10.0,Calm,Calm,-,N/A,,Clear,0,2012-03-16 03:53:00